ELY192 UACC-LLBG

Flight info

Callsign ELY192
Flight time N/A
Altitude 38000
Route DIDAL L994 TITUR N985 ORTIM L158 IRGOS T613 DOGOB M864 EKPIR/K0907F400 M864 ELMOD L4 TOKNU T288 STAPA M869 OPOKA/N0486F400 DCT LAUGA DCT VABER DCT ETUBO DCT ROBTU/N0488F410 DCT KENIN DCT LOMOS DCT NIKTI DCT AKINA DCT VANZA DCT PIKOG L609 ZUKKO
Aircraft B772/H-SDE2E3FGHIJ4J5LM1OP2RVWXY/LB1D1

Departure

Time 2026-04-29 11:27
Airport Nursultan Nazarbayev International Airport (UACC)

Arrival

Time N/A
Airport Ben Gurion International Airport (LLBG)
Time Latitude Longitude Altitude Speed Heading
2026-04-29 11:20 51.03440 71.47608 1168 ft 0 kts 43°
2026-04-29 11:23 51.03444 71.47615 1168 ft 2 kts 43°
2026-04-29 11:23 51.03461 71.47641 1164 ft 4 kts 45°
2026-04-29 11:24 51.03485 71.47689 1163 ft 6 kts 57°
2026-04-29 11:24 51.03510 71.47760 1163 ft 8 kts 60°
2026-04-29 11:24 51.03526 71.47851 1166 ft 9 kts 97°
2026-04-29 11:24 51.03488 71.47932 1164 ft 10 kts 135°
2026-04-29 11:25 51.03441 71.48020 1165 ft 11 kts 119°
2026-04-29 11:25 51.03430 71.48144 1167 ft 12 kts 90°
2026-04-29 11:25 51.03419 71.48277 1164 ft 12 kts 117°
2026-04-29 11:25 51.03353 71.48320 1166 ft 11 kts 200°
2026-04-29 11:26 51.03017 71.47808 1170 ft 86 kts 224°
2026-04-29 11:26 51.02456 71.46930 1168 ft 142 kts 224°
2026-04-29 11:26 51.01631 71.45649 1248 ft 183 kts 224°
2026-04-29 11:27 51.00738 71.44240 1880 ft 181 kts 224°
2026-04-29 11:27 50.99845 71.42810 2478 ft 183 kts 224°
2026-04-29 11:27 50.98937 71.41366 2904 ft 187 kts 224°
2026-04-29 11:27 50.98014 71.39896 3402 ft 187 kts 224°
2026-04-29 11:28 50.97095 71.38439 3841 ft 187 kts 224°
2026-04-29 11:28 50.96241 71.36900 4225 ft 189 kts 242°
2026-04-29 11:28 50.95921 71.34803 4415 ft 205 kts 271°
2026-04-29 11:28 50.96234 71.32508 4531 ft 224 kts 296°
2026-04-29 11:29 50.97253 71.30608 4625 ft 234 kts 329°
2026-04-29 11:29 50.98682 71.29201 4799 ft 251 kts 328°
2026-04-29 11:29 51.00161 71.27619 5059 ft 264 kts 321°
2026-04-29 11:29 51.01274 71.25270 5393 ft 272 kts 290°
2026-04-29 11:30 51.01873 71.22390 5899 ft 277 kts 287°
2026-04-29 11:30 51.02470 71.19473 6537 ft 278 kts 287°
2026-04-29 11:30 51.03080 71.16553 7128 ft 279 kts 287°
2026-04-29 11:30 51.03694 71.13608 7704 ft 282 kts 286°
2026-04-29 11:31 51.04312 71.10639 8250 ft 284 kts 286°
2026-04-29 11:31 51.04927 71.07680 8790 ft 286 kts 285°
2026-04-29 11:31 51.05553 71.04655 9357 ft 289 kts 285°
2026-04-29 11:31 51.06185 71.01597 9904 ft 291 kts 285°
2026-04-29 11:32 51.06824 70.98501 10274 ft 300 kts 285°
2026-04-29 11:32 51.07485 70.95292 10420 ft 318 kts 285°
2026-04-29 11:32 51.08193 70.91842 10565 ft 337 kts 285°
2026-04-29 11:32 51.08941 70.88188 10716 ft 357 kts 285°
2026-04-29 11:33 51.09728 70.84353 11069 ft 370 kts 285°
2026-04-29 11:33 51.10538 70.80407 11638 ft 378 kts 285°
2026-04-29 11:33 51.11358 70.76414 12399 ft 381 kts 285°
2026-04-29 11:33 51.12184 70.72388 13339 ft 382 kts 285°
2026-04-29 11:34 51.13008 70.68352 14214 ft 385 kts 285°
2026-04-29 11:34 51.13829 70.64324 14975 ft 388 kts 285°
2026-04-29 11:34 51.14664 70.60210 15740 ft 392 kts 285°
2026-04-29 11:34 51.15510 70.56036 16522 ft 396 kts 285°
2026-04-29 11:35 51.16072 70.53259 17042 ft 398 kts 285°
2026-04-29 11:35 51.16924 70.49038 17839 ft 402 kts 285°
2026-04-29 11:35 51.17782 70.44780 18601 ft 405 kts 285°